Location: Unspecified
(0.0000°N, 0.0000°E)
Time: 09:37:48
(UTC+00:00)

Vanguard 3 - Pass Details

Date: 28 September 2023
Orbit: 507 x 3241 km, 33.3° (Epoch: 06 December)

Event Time Altitude Azimuth Distance (km) Brightness Sun altitude
Rises 15:20:39 0° 241° (WSW) 7,164 12.7 37.5°
Reaches altitude 10° 15:25:32 10° 243° (WSW) 6,177 12.7 36.3°
Maximum altitude 15:44:57 65° 321° (NW) 2,956 10.8 31.4°
Drops below altitude 10° 15:58:15 10° 42° (NE) 4,409 10.6 28.1°
Sets 16:01:08 0° 45° (NE) 5,096 10.8 27.4°
